Location: Newark
(43.0000°N, 1.6781°W)
Time: 16:04:27
(UTC+00:00)

Vanguard 3 - All Passes

Search period start: 24 September 2022 00:00
Search period end: 04 October 2022 00:00
Orbit: 507 x 3258 km, 33.3° (Epoch: 23 September)

Date Brightness Start Highest point End Pass type
(mag) Time Alt. Az. Time Alt. Az. Time Alt. Az.
24 Sep - 09:40:54 10° S 09:45:34 20° SE 09:52:09 10° E daylight
24 Sep - 11:48:54 10° SW 11:56:33 47° SSE 12:09:43 10° E daylight
24 Sep - 13:59:24 10° WSW 14:09:44 54° S 14:26:33 10° ESE daylight
24 Sep - 16:11:37 10° W 16:24:07 39° SSW 16:41:05 10° SE daylight
24 Sep - 18:28:03 10° WSW 18:38:16 18° SW 18:49:33 10° S visible
25 Sep - 10:35:43 10° SW 10:41:46 34° SSE 10:51:40 10° E daylight
25 Sep - 12:45:16 10° WSW 12:53:49 53° S 13:08:36 10° ESE daylight
25 Sep - 14:56:30 10° W 15:07:36 46° SSW 15:24:30 10° SE daylight
25 Sep - 17:10:09 10° W 17:21:54 27° SSW 17:36:27 10° SSE daylight
26 Sep - 09:23:22 10° S 09:27:38 20° SE 09:33:37 10° E daylight
26 Sep - 11:31:35 10° WSW 11:38:33 46° SSE 11:50:36 10° E daylight
26 Sep - 13:41:59 10° WSW 13:51:25 50° S 14:07:06 10° ESE daylight
26 Sep - 15:54:07 10° W 16:05:28 35° SSW 16:21:17 10° SSE daylight
26 Sep - 18:11:25 10° WSW 18:19:28 15° SW 18:28:26 10° SSW visible
27 Sep - 10:18:22 10° SW 10:23:53 34° SSE 10:32:50 10° E daylight
27 Sep - 12:27:58 10° WSW 12:35:45 50° S 12:49:19 10° ESE daylight
27 Sep - 14:39:04 10° W 14:49:10 42° SSW 15:04:51 10° SE daylight
27 Sep - 16:52:55 10° WSW 17:03:13 23° SSW 17:16:08 10° S daylight
28 Sep - 09:05:55 10° SSW 09:09:48 20° SE 09:15:11 10° ESE daylight
28 Sep - 11:14:19 10° WSW 11:20:39 44° SSE 11:31:34 10° ESE daylight
28 Sep - 13:24:40 10° WSW 13:33:15 46° S 13:47:37 10° ESE daylight
28 Sep - 15:36:48 10° W 15:46:57 30° SSW 16:01:17 10° SSE daylight
28 Sep - 17:56:08 10° WSW 18:00:50 12° SW 18:05:54 10° SSW daylight
29 Sep - 10:01:06 10° SW 10:06:07 33° SSE 10:14:07 10° E daylight
29 Sep - 12:10:43 10° WSW 12:17:48 46° S 12:30:04 10° ESE daylight
29 Sep - 14:21:47 10° W 14:30:53 37° SSW 14:45:05 10° SE daylight
29 Sep - 16:36:04 10° WSW 16:44:40 19° SSW 16:55:23 10° S daylight
30 Sep - 08:48:30 10° SSW 08:52:04 20° SSE 08:56:53 10° ESE daylight
30 Sep - 10:57:06 10° WSW 11:02:52 42° S 11:12:37 10° ESE daylight
30 Sep - 13:07:26 10° WSW 13:15:11 41° S 13:28:08 10° SE daylight
30 Sep - 15:19:41 10° WSW 15:28:35 26° SSW 15:41:03 10° SSE daylight
01 Oct - 09:43:52 10° SW 09:48:25 32° SSE 09:55:31 10° ESE daylight
01 Oct - 11:53:32 10° WSW 11:59:56 42° S 12:10:54 10° ESE daylight
01 Oct - 14:04:38 10° WSW 14:12:44 32° SSW 14:25:13 10° SE daylight
01 Oct - 16:19:50 10° WSW 16:26:17 15° SSW 16:34:01 10° S daylight
02 Oct - 08:31:07 10° SSW 08:34:23 19° SSE 08:38:41 10° ESE daylight
02 Oct - 10:39:56 10° WSW 10:45:09 39° S 10:53:47 10° ESE daylight
02 Oct - 12:50:18 10° WSW 12:57:14 36° SSW 13:08:38 10° SE daylight
02 Oct - 15:02:51 10° WSW 15:10:22 21° SSW 15:20:34 10° SSE daylight
03 Oct - 09:26:39 10° SW 09:30:48 30° SSE 09:37:03 10° ESE daylight
03 Oct - 11:36:24 10° WSW 11:42:11 38° S 11:51:46 10° ESE daylight
03 Oct - 13:47:38 10° WSW 13:54:42 26° SSW 14:05:16 10° SSE daylight
03 Oct - 16:05:33 10° SW 16:08:02 11° SSW 16:10:42 10° SSW daylight
